Volver al catálogo

COSMOS 249 DEB *

ActivoLEO
NORAD 3908·DEBRIS·🇷🇺 Russia

Lanzado Oct 20, 1968 desde Baikonur Cosmodrome

Loading…

Próximos Pases (próximas 24 horas)

TLE

ActualizadoSource: Space-Track

Época: Sep 14, 2026, 12:38 UTC

1 03908U 68091BL  26257.52640560  .00000466  00000-0  37381-3 0  9995
2 03908  63.3376 101.9673 0604233  34.1815 348.5934 13.36651640793434

Sigue COSMOS 249 DEB * en tiempo real con AllMySat

Download on the App Store